Voltar ao catálogo

YZ-1 R/B

AtivoMEO
NORAD 40751·ROCKET BODY·🇨🇳 China

Lançado Jul 25, 2015 de Xichang Satellite Launch Center

Loading…

Próximas Passagens (próximas 24 horas)

TLE

AtualizadoSource: Space-Track

Época: Sep 8, 2026, 10:05 UTC

1 40751U 15037D   26251.42019031 -.00000109  00000-0  00000-0 0  9990
2 40751  56.3606 340.6226 1022984  76.9040 294.3028  1.56590954 63630

Acompanhe YZ-1 R/B em tempo real com AllMySat

Download on the App Store